ONEWEB-0629 (55170 NORAD) Tracking and Keplerian Element Data

This shows tracking and keplerian element data for the satellite.

Feedback or suggestion? Click here.




ElementValue
Catalog55170
NameONEWEB-0629
Epoch Orbit130
Epoch Day13.91667824
Epoch Year2023
RAAN284.14
Inclination86.5115
Eccentricity0.0013196
Argument of Perigee215.0808
Mean Anonmoly63.9702
Mean Motion14.91980322
Decay Rate-0.00047731
L11 55170U 23004AG 23013.91667824 -.00047731 00000+0 -47464-2 0 9999
L22 55170 86.5115 284.1400 0013196 215.0808 63.9702 14.91980322 1309



Live tracking and technical data element details for ONEWEB-0629 (NORAD 55170). ONEWEB-0629 can be tracked NOW for your location showing map with azimuth and elevation plus other details from your city location.







IsCatalogInMostPopularTable: catalog: 55170, numindb: 3
Update: records affected: 1



GetName: 55170 ONEWEB-0629

Hit Count: updated at: Tue, 07 Feb 2023 14:39:45 GMT